• In Germany
  • List of Countries
  • For 7 days
  • Water Temperature
  • Satellite Maps
  • Weather Map
  • Weather Widgets
  • user-avatar
    Login

    Hourly Weather Hobart

    Today, 17 August, Thursday

    Time Temperature Precipitation Wind Pressure Humidity
    00:00 +6°C° 0 mm 8 mps 727 mmHg 69%
    01:00 +6°C° 0 mm 8 mps 727 mmHg 68%
    02:00 +6°C° 0 mm 8 mps 727 mmHg 70%
    03:00 +5°C° 0 mm 8 mps 727 mmHg 71%
    04:00 +5°C° 0 mm 6 mps 727 mmHg 75%
    05:00 +5°C° 0.1 mm 6 mps 727 mmHg 76%
    06:00 +5°C° 0.1 mm 6 mps 727 mmHg 78%
    07:00 +5°C° 0.1 mm 7 mps 727 mmHg 79%
    08:00 +5°C° 0.1 mm 7 mps 727 mmHg 75%
    09:00 +6°C° 0.1 mm 7 mps 728 mmHg 72%
    10:00 +9°C° 0 mm 6 mps 728 mmHg 65%
    11:00 +9°C° 0.1 mm 6 mps 728 mmHg 64%
    12:00 +9°C° 0.1 mm 7 mps 728 mmHg 63%
    13:00 +9°C° 0.1 mm 8 mps 728 mmHg 62%
    14:00 +9°C° 0.1 mm 8 mps 729 mmHg 62%
    15:00 +7°C° 0.1 mm 8 mps 729 mmHg 63%
    16:00 +8°C° 0.1 mm 7 mps 729 mmHg 63%
    17:00 +6°C° 0 mm 7 mps 729 mmHg 69%
    18:00 +4°C° 0 mm 6 mps 730 mmHg 75%
    19:00 +3°C° 0 mm 6 mps 730 mmHg 81%
    20:00 +3°C° 0 mm 5 mps 731 mmHg 82%
    21:00 +3°C° 0 mm 5 mps 731 mmHg 83%
    22:00 +3°C° 0 mm 5 mps 731 mmHg 85%
    23:00 +2°C° 0.1 mm 5 mps 732 mmHg 86%

    Tomorrow, 18 August, Friday

    Time Temperature Precipitation Wind Pressure Humidity
    00:00 +3°C° 0.1 mm 4 mps 732 mmHg 88%
    01:00 +3°C° 0.1 mm 4 mps 732 mmHg 89%
    02:00 +3°C° 0.1 mm 4 mps 732 mmHg 91%
    03:00 +3°C° 0.1 mm 4 mps 733 mmHg 92%
    04:00 +3°C° 0.1 mm 4 mps 733 mmHg 93%
    05:00 +3°C° 0.3 mm 4 mps 734 mmHg 94%
    06:00 +2°C° 0.3 mm 5 mps 735 mmHg 95%
    07:00 +2°C° 0.3 mm 5 mps 736 mmHg 95%
    08:00 +2°C° 0.2 mm 5 mps 737 mmHg 90%
    09:00 +3°C° 0.2 mm 6 mps 738 mmHg 85%
    10:00 +4°C° 0.2 mm 6 mps 739 mmHg 79%
    11:00 +4°C° 0.2 mm 6 mps 739 mmHg 73%
    12:00 +5°C° 0.2 mm 6 mps 740 mmHg 67%
    13:00 +5°C° 0.2 mm 7 mps 741 mmHg 61%
    14:00 +5°C° 0.2 mm 7 mps 742 mmHg 61%
    15:00 +4°C° 0.2 mm 6 mps 743 mmHg 62%
    16:00 +4°C° 0.2 mm 6 mps 743 mmHg 62%
    17:00 +3°C° 0.1 mm 6 mps 744 mmHg 69%
    18:00 +2°C° 0.1 mm 6 mps 746 mmHg 77%
    19:00 0°C° 0.1 mm 5 mps 747 mmHg 84%
    20:00 0°C° 0.1 mm 5 mps 747 mmHg 86%
    21:00 -1°C° 0.1 mm 5 mps 748 mmHg 89%
    22:00 -1°C° 0.1 mm 5 mps 749 mmHg 91%
    23:00 -1°C° 0.1 mm 4 mps 750 mmHg 91%

    Day after tomorrow, 19 August, Saturday

    Time Temperature Precipitation Wind Pressure Humidity
    00:00 -2°C° 0.1 mm 4 mps 750 mmHg 92%
    01:00 -2°C° 0.1 mm 4 mps 751 mmHg 93%
    02:00 -2°C° 0.1 mm 4 mps 751 mmHg 93%
    03:00 -2°C° 0.1 mm 4 mps 751 mmHg 94%
    04:00 -2°C° 0.1 mm 4 mps 752 mmHg 94%
    05:00 -2°C° 0 mm 4 mps 752 mmHg 94%
    06:00 -2°C° 0 mm 4 mps 752 mmHg 94%
    07:00 -2°C° 0 mm 4 mps 753 mmHg 94%
    08:00 0°C° 0.1 mm 4 mps 753 mmHg 83%
    09:00 +2°C° 0.1 mm 5 mps 753 mmHg 72%
    10:00 +6°C° 0.1 mm 5 mps 754 mmHg 62%
    11:00 +6°C° 0 mm 5 mps 753 mmHg 58%
    12:00 +7°C° 0 mm 5 mps 753 mmHg 55%
    13:00 +8°C° 0 mm 5 mps 753 mmHg 52%
    14:00 +7°C° 0 mm 5 mps 753 mmHg 54%
    15:00 +7°C° 0 mm 5 mps 753 mmHg 55%
    16:00 +7°C° 0 mm 5 mps 753 mmHg 57%
    17:00 +5°C° 0 mm 5 mps 753 mmHg 67%
    18:00 +3°C° 0 mm 4 mps 754 mmHg 78%
    19:00 0°C° 0 mm 4 mps 754 mmHg 88%
    20:00 0°C° 0 mm 4 mps 754 mmHg 90%
    21:00 +1°C° 0 mm 3 mps 754 mmHg 92%
    22:00 +1°C° 0 mm 3 mps 754 mmHg 94%
    23:00 +1°C° 0 mm 3 mps 753 mmHg 94%

    20 August, Sunday

    Time Temperature Precipitation Wind Pressure Humidity
    00:00 +1°C° 0 mm 3 mps 753 mmHg 94%
    01:00 +2°C° 0 mm 3 mps 753 mmHg 94%
    02:00 +2°C° 0 mm 3 mps 753 mmHg 95%
    03:00 +2°C° 0 mm 3 mps 752 mmHg 96%
    04:00 +1°C° 0 mm 3 mps 752 mmHg 97%
    05:00 +1°C° 0 mm 3 mps 752 mmHg 96%
    06:00 +1°C° 0 mm 3 mps 752 mmHg 96%
    07:00 +1°C° 0 mm 3 mps 752 mmHg 95%
    08:00 +4°C° 0 mm 3 mps 752 mmHg 86%
    09:00 +8°C° 0 mm 3 mps 751 mmHg 76%
    10:00 +10°C° 0 mm 4 mps 751 mmHg 66%
    11:00 +11°C° 0 mm 4 mps 750 mmHg 66%
    12:00 +12°C° 0 mm 4 mps 750 mmHg 65%
    13:00 +12°C° 0 mm 4 mps 749 mmHg 65%
    14:00 +12°C° 0.1 mm 3 mps 749 mmHg 67%
    15:00 +12°C° 0.1 mm 3 mps 749 mmHg 69%
    16:00 +11°C° 0.1 mm 3 mps 748 mmHg 72%
    17:00 +9°C° 0 mm 3 mps 748 mmHg 79%
    18:00 +8°C° 0 mm 3 mps 748 mmHg 87%
    19:00 +5°C° 0 mm 3 mps 749 mmHg 94%
    20:00 +4°C° 0 mm 3 mps 748 mmHg 95%
    21:00 +4°C° 0 mm 3 mps 748 mmHg 96%
    22:00 +4°C° 0 mm 2 mps 748 mmHg 97%
    23:00 +4°C° 0 mm 2 mps 748 mmHg 96%

    21 August, Monday

    Time Temperature Precipitation Wind Pressure Humidity
    00:00 +4°C° 0 mm 2 mps 747 mmHg 95%
    01:00 +4°C° 0 mm 2 mps 747 mmHg 94%
    02:00 +4°C° 0 mm 2 mps 746 mmHg 93%
    03:00 +3°C° 0 mm 2 mps 746 mmHg 91%
    04:00 +3°C° 0 mm 2 mps 745 mmHg 90%
    05:00 +4°C° 0 mm 2 mps 745 mmHg 90%
    06:00 +4°C° 0 mm 2 mps 745 mmHg 90%
    07:00 +5°C° 0 mm 2 mps 745 mmHg 90%
    08:00 +6°C° 0.1 mm 2 mps 744 mmHg 88%
    09:00 +8°C° 0.1 mm 2 mps 744 mmHg 86%
    10:00 +9°C° 0.1 mm 3 mps 744 mmHg 84%
    11:00 +10°C° 0.1 mm 3 mps 743 mmHg 80%
    12:00 +10°C° 0.1 mm 3 mps 743 mmHg 76%
    13:00 +11°C° 0.1 mm 3 mps 742 mmHg 72%
    14:00 +11°C° 0.1 mm 3 mps 742 mmHg 74%
    15:00 +10°C° 0.1 mm 3 mps 742 mmHg 76%
    16:00 +10°C° 0.1 mm 3 mps 741 mmHg 78%
    17:00 +8°C° 0 mm 3 mps 741 mmHg 82%
    18:00 +7°C° 0 mm 3 mps 741 mmHg 87%
    19:00 +5°C° 0 mm 4 mps 742 mmHg 91%
    20:00 +4°C° 0 mm 3 mps 741 mmHg 92%
    21:00 +4°C° 0 mm 3 mps 741 mmHg 92%
    22:00 +4°C° 0 mm 3 mps 741 mmHg 93%
    23:00 +4°C° 0 mm 3 mps 741 mmHg 94%

    22 August, Tuesday

    Time Temperature Precipitation Wind Pressure Humidity
    00:00 +3°C° 0 mm 3 mps 740 mmHg 94%
    01:00 +3°C° 0 mm 3 mps 740 mmHg 95%
    02:00 +4°C° 0 mm 4 mps 739 mmHg 93%
    03:00 +4°C° 0 mm 4 mps 739 mmHg 91%
    04:00 +5°C° 0 mm 4 mps 738 mmHg 89%
    05:00 +6°C° 0 mm 4 mps 738 mmHg 88%
    06:00 +6°C° 0 mm 5 mps 739 mmHg 87%
    07:00 +7°C° 0 mm 5 mps 739 mmHg 86%
    08:00 +8°C° 0 mm 5 mps 738 mmHg 80%
    09:00 +9°C° 0 mm 6 mps 738 mmHg 75%
    10:00 +10°C° 0 mm 6 mps 738 mmHg 69%
    11:00 +10°C° 0.2 mm 6 mps 738 mmHg 73%
    12:00 +9°C° 0.2 mm 6 mps 739 mmHg 76%
    13:00 +8°C° 0.2 mm 7 mps 739 mmHg 80%
    14:00 +8°C° 0 mm 7 mps 739 mmHg 75%
    15:00 +6°C° 0 mm 7 mps 740 mmHg 69%
    16:00 +7°C° 0 mm 6 mps 740 mmHg 64%
    17:00 +5°C° 0.1 mm 6 mps 741 mmHg 70%
    18:00 +5°C° 0.1 mm 5 mps 742 mmHg 75%
    19:00 +3°C° 0.1 mm 5 mps 743 mmHg 81%
    20:00 +2°C° 0.1 mm 5 mps 744 mmHg 81%
    21:00 +2°C° 0.1 mm 5 mps 744 mmHg 82%
    22:00 +2°C° 0.1 mm 5 mps 745 mmHg 82%
    23:00 +1°C° 0 mm 5 mps 745 mmHg 83%
    Show more